Location: Sperry Observatory
(40.6664°N, 74.3236°W)
Time: 10:45:58
(UTC-04:00)

Amateur Radio Satellites - All Passes

Search period start: 29 July 2014 10:15
Search period end: 30 July 2014 10:15
Location: Sperry Observatory, 40.6664°N, 74.3236°W

Satellite Date Start Highest point End Downlink Frequencies (MHz)
Time Altitude Azimuth
Oscar 11 29 Jul 10:26:29 10:30:41 47° 99° (E) 10:34:52 145.825 FM, Beacon 2401.500 USB
FUNcube-1 29 Jul 10:48:55 10:52:35 29° 97° (E) 10:56:16 145.950 - 145.970 MHz USB
HO-68 29 Jul 10:55:08 11:02:04 55° 292° (WNW) 11:08:58 435.675 MHz FM
Sapphire 29 Jul 11:16:38 11:21:16 30° 251° (WSW) 11:25:53 437.095 MHz 1200 baud AX-25 AFSK
UKube-1 29 Jul 11:18:13 11:21:47 25° 293° (WNW) 11:25:20 145.840 MHz, 145.915 MHz
PCSat 29 Jul 11:51:39 11:54:17 14° 257° (WSW) 11:56:55 145.825 MHz
Oscar 11 29 Jul 12:03:51 12:06:29 16° 295° (WNW) 12:09:07 145.825 FM, Beacon 2401.500 USB
JAS-1B 29 Jul 12:23:51 12:28:15 14° 45° (NE) 12:32:44 435.800 - 435.900 CW/SSB
FUNcube-1 29 Jul 12:25:35 12:28:51 22° 292° (WNW) 12:32:07 145.950 - 145.970 MHz USB
Oscar 19 29 Jul 12:29:34 12:32:58 18° 63° (ENE) 12:36:23 437.125 CW, 437.150 USB
AO-Echo 29 Jul 12:44:25 12:46:37 13° 59° (ENE) 12:48:49 ?
HO-68 29 Jul 12:47:00 12:48:13 11° 312° (NW) 12:49:26 435.675 MHz FM
SO-50 29 Jul 12:52:41 12:57:08 86° 302° (WNW) 13:01:43 436.795 FM
Oscar 16 29 Jul 12:56:38 13:01:10 33° 68° (ENE) 13:05:44 437.025 USB, Beacon 2401.1428
RS-15 29 Jul 12:59:51 13:10:20 49° 111° (ESE) 13:20:35 29.354 - 29.394 USB, Beacon 29.352 USB
UOSAT-12 29 Jul 13:14:41 13:16:08 11° 107° (ESE) 13:17:36 437.025 FM, 437.400 FM
ITAMSAT 1 29 Jul 13:18:48 13:22:58 25° 65° (ENE) 13:27:09 435.822 SSB
KITSAT 1 29 Jul 13:20:14 13:25:45 19° 32° (NNE) 13:31:14 435.175 FM
AO-27 29 Jul 13:37:24 13:42:10 37° 69° (ENE) 13:46:56 436.795 MHz FM
Uribyol 2 29 Jul 13:37:24 13:42:11 38° 69° (ENE) 13:46:58 436.500 FM
TMSAT-1 29 Jul 13:40:49 13:42:49 12° 59° (ENE) 13:44:50 436.925 FM
AO-7 29 Jul 13:57:15 14:00:06 12° 44° (NE) 14:02:58 29.400 - 29.500 MHz
Gurwin Techsat 1B 29 Jul 14:02:42 14:07:03 27° 66° (ENE) 14:11:25 435.225 FM
Oscar 19 29 Jul 14:06:51 14:11:51 56° 259° (W) 14:16:54 437.125 CW, 437.150 USB
JAS-1B 29 Jul 14:07:47 14:16:25 55° 66° (ENE) 14:25:54 435.800 - 435.900 CW/SSB
AO-Echo 29 Jul 14:19:16 14:24:35 90° 256° (WSW) 14:29:57 ?
Oscar 16 29 Jul 14:36:08 14:40:31 29° 264° (W) 14:44:56 437.025 USB, Beacon 2401.1428
SO-50 29 Jul 14:36:08 14:38:25 14° 322° (NW) 14:40:44 436.795 FM
UOSAT-12 29 Jul 14:51:00 14:55:35 78° 303° (WNW) 15:00:18 437.025 FM, 437.400 FM
Saudisat 1A 29 Jul 14:55:44 14:57:33 12° 38° (NE) 14:59:21 436.775 MHz
ITAMSAT 1 29 Jul 14:57:19 15:02:13 41° 262° (W) 15:07:09 435.822 SSB
RS-15 29 Jul 15:11:56 15:22:37 51° 313° (NW) 15:33:13 29.354 - 29.394 USB, Beacon 29.352 USB
KITSAT 1 29 Jul 15:14:48 15:22:52 66° 56° (NE) 15:30:51 435.175 FM
TMSAT-1 29 Jul 15:16:38 15:21:56 89° 75° (ENE) 15:27:17 436.925 FM
AO-27 29 Jul 15:17:22 15:21:44 27° 265° (W) 15:26:07 436.795 MHz FM
Uribyol 2 29 Jul 15:17:28 15:21:44 25° 265° (W) 15:26:01 436.500 FM
Gurwin Techsat 1B 29 Jul 15:41:52 15:46:48 39° 262° (W) 15:51:47 435.225 FM
AO-7 29 Jul 15:42:59 15:51:00 54° 65° (ENE) 15:59:03 29.400 - 29.500 MHz
JAS-1B 29 Jul 15:58:56 16:07:03 40° 267° (W) 16:16:05 435.800 - 435.900 CW/SSB
AO-Echo 29 Jul 16:03:00 16:04:01 11° 272° (W) 16:05:02 ?
Uosat F 29 Jul 16:17:02 16:22:04 79° 74° (ENE) 16:27:08 435.120 FM
Saudisat 1A 29 Jul 16:33:26 16:37:52 79° 57° (ENE) 16:42:16 436.775 MHz
UOSAT-12 29 Jul 16:34:19 16:36:33 13° 323° (NW) 16:38:49 437.025 FM, 437.400 FM
TMSAT-1 29 Jul 17:01:42 17:02:32 10° 272° (W) 17:03:23 436.925 FM
OPAL 29 Jul 17:10:50 17:15:56 79° 105° (ESE) 17:21:04 ?
KITSAT 1 29 Jul 17:11:08 17:17:38 28° 255° (WSW) 17:24:06 435.175 FM
JAS-2 29 Jul 17:12:01 17:18:29 30° 64° (ENE) 17:24:35 435.800 - 435.900 CW/SSB, 435.910 FM
RS-15 29 Jul 17:30:36 17:38:27 21° 344° (NNW) 17:46:20 29.354 - 29.394 USB, Beacon 29.352 USB
AO-7 29 Jul 17:36:36 17:44:00 35° 263° (W) 17:51:28 29.400 - 29.500 MHz
Uosat F 29 Jul 17:59:48 18:01:25 11° 271° (W) 18:03:02 435.120 FM
Saudisat 1A 29 Jul 18:16:19 18:16:47 10° 253° (WSW) 18:17:15 436.775 MHz
Hamsat 29 Jul 18:18:48 18:22:58 76° 258° (WSW) 18:27:11 145.90 MHz
SO-67 29 Jul 18:22:39 18:24:32 14° 67° (ENE) 18:26:26 435.3500 MHz FM
OPAL 29 Jul 18:51:40 18:54:10 14° 302° (WNW) 18:56:41 ?
JAS-2 29 Jul 18:55:25 19:03:06 59° 260° (W) 19:10:21 435.800 - 435.900 CW/SSB, 435.910 FM
STRAND 1 29 Jul 19:35:06 19:40:09 59° 101° (E) 19:45:10 ?
HO-68 29 Jul 19:37:33 19:42:43 22° 57° (ENE) 19:47:53 435.675 MHz FM
SO-50 29 Jul 19:45:36 19:47:54 13° 38° (NE) 19:50:13 436.795 FM
RS-15 29 Jul 19:48:00 19:56:19 24° 21° (NNE) 20:04:44 29.354 - 29.394 USB, Beacon 29.352 USB
SO-67 29 Jul 19:54:11 19:57:19 32° 263° (W) 20:00:29 435.3500 MHz FM
UKube-1 29 Jul 20:37:25 20:41:00 25° 67° (ENE) 20:44:35 145.840 MHz, 145.915 MHz
MaSat-1 29 Jul 20:51:24 20:55:05 36° 107° (ESE) 20:59:21 437.345 MHz
STRAND 1 29 Jul 21:15:34 21:18:51 18° 298° (WNW) 21:22:07 ?
Oscar 11 29 Jul 21:21:21 21:25:16 35° 71° (ENE) 21:29:13 145.825 FM, Beacon 2401.500 USB
HO-68 29 Jul 21:22:30 21:29:40 76° 255° (WSW) 21:36:52 435.675 MHz FM
SO-50 29 Jul 21:24:29 21:29:15 77° 57° (ENE) 21:34:05 436.795 FM
UOSAT-12 29 Jul 21:42:20 21:44:49 14° 38° (NE) 21:47:16 437.025 FM, 437.400 FM
FUNcube-1 29 Jul 21:45:31 21:48:59 24° 69° (ENE) 21:52:24 145.950 - 145.970 MHz USB
RS-15 29 Jul 22:00:42 22:11:36 60° 51° (NE) 22:22:51 29.354 - 29.394 USB, Beacon 29.352 USB
ISS 29 Jul 22:08:25 22:08:54 10° 128° (SE) 22:09:23 145.800 FM
UKube-1 29 Jul 22:13:17 22:17:05 29° 263° (W) 22:20:54 145.840 MHz, 145.915 MHz
MaSat-1 29 Jul 22:29:06 22:32:34 23° 309° (NW) 22:36:25 437.345 MHz
Oscar 11 29 Jul 22:58:28 23:01:34 19° 267° (W) 23:04:40 145.825 FM, Beacon 2401.500 USB
SO-50 29 Jul 23:07:15 23:09:13 12° 253° (WSW) 23:11:10 436.795 FM
HO-68 29 Jul 23:16:02 23:18:27 12° 273° (W) 23:20:51 435.675 MHz FM
UOSAT-12 29 Jul 23:20:58 23:25:43 82° 57° (ENE) 23:30:24 437.025 FM, 437.400 FM
FUNcube-1 29 Jul 23:21:32 23:25:16 28° 264° (W) 23:28:58 145.950 - 145.970 MHz USB
ISS 29 Jul 23:41:47 23:45:07 86° 323° (NW) 23:48:29 145.800 FM
RS-15 30 Jul 00:13:34 00:23:31 41° 252° (WSW) 00:33:50 29.354 - 29.394 USB, Beacon 29.352 USB
Sapphire 30 Jul 00:14:36 00:19:31 37° 111° (ESE) 00:24:27 437.095 MHz 1200 baud AX-25 AFSK
PCSat 30 Jul 00:47:19 00:52:43 78° 117° (ESE) 00:58:09 145.825 MHz
UOSAT-12 30 Jul 01:03:54 01:05:10 11° 254° (WSW) 01:06:25 437.025 FM, 437.400 FM
Oscar 16 30 Jul 01:10:42 01:12:24 12° 89° (E) 01:14:05 437.025 USB, Beacon 2401.1428
ISS 30 Jul 01:19:45 01:22:14 19° 342° (NNW) 01:24:44 145.800 FM
Uribyol 2 30 Jul 01:52:05 01:54:34 13° 90° (E) 01:57:01 436.500 FM
AO-27 30 Jul 01:52:30 01:54:50 13° 90° (E) 01:57:08 436.795 MHz FM
JAS-1B 30 Jul 01:57:24 02:02:36 16° 82° (E) 02:07:22 435.800 - 435.900 CW/SSB
Sapphire 30 Jul 01:58:08 02:02:57 32° 309° (NW) 02:07:49 437.095 MHz 1200 baud AX-25 AFSK
Oscar 19 30 Jul 02:18:38 02:23:42 53° 100° (E) 02:28:44 437.125 CW, 437.150 USB
AO-40 30 Jul 02:20:01 04:00:17 24° 220° (SW) 07:16:57 Beacon 2401.320
AO-Echo 30 Jul 02:27:45 02:32:09 30° 95° (E) 02:36:25 ?
PCSat 30 Jul 02:33:03 02:36:45 18° 316° (NW) 02:40:29 145.825 MHz
Oscar 16 30 Jul 02:47:09 02:52:20 80° 285° (WNW) 02:57:30 437.025 USB, Beacon 2401.1428
OPAL 30 Jul 02:49:12 02:52:20 17° 60° (ENE) 02:55:29 ?
ISS 30 Jul 02:58:22 02:59:58 13° 2° (N) 03:01:35 145.800 FM
ITAMSAT 1 30 Jul 03:10:09 03:15:21 74° 103° (ESE) 03:20:29 435.822 SSB
Uribyol 2 30 Jul 03:29:23 03:34:32 70° 286° (WNW) 03:39:39 436.500 FM
AO-27 30 Jul 03:29:41 03:34:52 73° 286° (WNW) 03:40:01 436.795 MHz FM
TMSAT-1 30 Jul 03:33:07 03:38:00 36° 97° (E) 03:42:50 436.925 FM
JAS-1B 30 Jul 03:45:16 03:54:42 82° 104° (ESE) 04:02:39 435.800 - 435.900 CW/SSB
AO-7 30 Jul 03:47:07 03:51:38 15° 89° (E) 03:56:07 29.400 - 29.500 MHz
Gurwin Techsat 1B 30 Jul 03:57:55 04:03:16 86° 104° (ESE) 04:08:34 435.225 FM
Oscar 19 30 Jul 03:58:59 04:02:37 20° 297° (WNW) 04:06:16 437.125 CW, 437.150 USB
AO-Echo 30 Jul 04:06:28 04:10:52 31° 293° (WNW) 04:15:08 ?
Uosat F 30 Jul 04:25:47 04:29:51 24° 95° (E) 04:33:53 435.120 FM
OPAL 30 Jul 04:25:53 04:30:44 59° 257° (WSW) 04:35:39 ?
Oscar 16 30 Jul 04:29:56 04:30:49 10° 302° (WNW) 04:31:42 437.025 USB, Beacon 2401.1428
ISS 30 Jul 04:34:50 04:37:37 23° 22° (NNE) 04:40:24 145.800 FM
ITAMSAT 1 30 Jul 04:51:26 04:54:12 15° 300° (WNW) 04:56:57 435.822 SSB
MaSat-1 30 Jul 05:10:46 05:13:38 14° 45° (NE) 05:16:26 437.345 MHz
TMSAT-1 30 Jul 05:13:18 05:17:45 28° 294° (WNW) 05:22:11 436.925 FM
STRAND 1 30 Jul 05:16:16 05:17:26 11° 58° (ENE) 05:18:36 ?
PANSAT 30 Jul 05:27:33 05:29:17 13° 174° (S) 05:31:01 not established
JAS-1B 30 Jul 05:36:52 05:43:58 25° 306° (NW) 05:50:25 435.800 - 435.900 CW/SSB
AO-7 30 Jul 05:37:10 05:45:33 83° 107° (ESE) 05:53:51 29.400 - 29.500 MHz
Gurwin Techsat 1B 30 Jul 05:40:08 05:42:28 13° 301° (WNW) 05:44:48 435.225 FM
KITSAT 1 30 Jul 05:42:36 05:50:13 47° 111° (ESE) 05:57:51 435.175 FM
Uosat F 30 Jul 06:04:07 06:08:43 38° 291° (WNW) 06:13:18 435.120 FM
Hamsat 30 Jul 06:05:36 06:08:46 20° 93° (E) 06:11:56 145.90 MHz
JAS-2 30 Jul 06:08:01 06:11:53 18° 89° (E) 06:15:31 435.800 - 435.900 CW/SSB, 435.910 FM
ISS 30 Jul 06:11:14 06:14:33 59° 220° (SW) 06:17:52 145.800 FM
Saudisat 1A 30 Jul 06:40:34 06:43:56 22° 112° (ESE) 06:47:20 436.775 MHz
MaSat-1 30 Jul 06:46:29 06:51:49 84° 65° (ENE) 06:56:48 437.345 MHz
STRAND 1 30 Jul 06:50:38 06:55:47 83° 75° (ENE) 07:00:57 ?
PANSAT 30 Jul 07:07:07 07:08:43 12° 187° (S) 07:10:19 not established
SO-67 30 Jul 07:18:58 07:21:16 17° 93° (E) 07:23:33 435.3500 MHz FM
AO-7 30 Jul 07:31:15 07:37:24 24° 307° (NW) 07:43:31 29.400 - 29.500 MHz
KITSAT 1 30 Jul 07:38:04 07:45:40 43° 311° (NW) 07:53:19 435.175 FM
Hamsat 30 Jul 07:40:53 07:44:49 35° 289° (WNW) 07:48:45 145.90 MHz
JAS-2 30 Jul 07:51:46 07:57:32 55° 289° (WNW) 08:02:45 435.800 - 435.900 CW/SSB, 435.910 FM
PCSat 30 Jul 07:54:47 07:56:23 11° 37° (NE) 07:57:58 145.825 MHz
Saudisat 1A 30 Jul 08:19:07 08:23:17 40° 309° (NW) 08:27:28 436.775 MHz
MaSat-1 30 Jul 08:26:25 08:28:18 12° 262° (W) 08:30:08 437.345 MHz
STRAND 1 30 Jul 08:34:10 08:35:34 11° 271° (W) 08:36:59 ?
SO-67 30 Jul 08:51:24 08:54:21 26° 289° (WNW) 08:57:16 435.3500 MHz FM
HO-68 30 Jul 08:51:50 08:56:58 21° 92° (E) 09:02:03 435.675 MHz FM
Sapphire 30 Jul 09:02:41 09:07:27 30° 51° (NE) 09:12:11 437.095 MHz 1200 baud AX-25 AFSK
PCSat 30 Jul 09:35:39 09:41:01 57° 57° (ENE) 09:46:20 145.825 MHz
KITSAT 1 30 Jul 09:39:36 09:43:37 14° 337° (NNW) 09:47:38 435.175 FM
UKube-1 30 Jul 10:01:18 10:05:31 47° 100° (E) 10:09:41 145.840 MHz, 145.915 MHz
